Tracking 25934 objects as of 10-Aug-2022
HD Live streaming from Space Station
objects crossing your sky now

TANSUO 1

Track TANSUO 1 now!
10-day predictions
TANSUO 1 is classified as:


NORAD ID: 28220
Int'l Code: 2004-012A
Perigee: 558.6 km
Apogee: 576.3 km
Inclination: 98.0 °
Period: 95.9 minutes
Semi major axis: 6938 km
RCS: 1.6951 m2 (large)
Launch date: April 18, 2004
Source: People's Republic of China (PRC)
Launch site: Xichang Space Center, China (XSC)
aabbcc
Your satellite tracking list
Your tracking list is empty




NASA's NSSDC Master Catalog

Two Line Element Set (TLE):
1 28220U 04012A   22222.49583536  .00001506  00000-0  11934-3 0  9997
2 28220  97.9796 216.1620 0012757 140.8086 219.4064 15.02120888998186
Source of the keplerian elements: AFSPC